Jackson, KY

2:22 AM EST on November 19, 2019 (GMT -0500)
Carroll

Weather History for KJKL - September, 2019

Change the Weather History Date:

Friday, September 27, 2019

  Actual Average Record
Temperature  
Mean Temperature 77 °F 64 °F  
Max Temperature 92 °F 74 °F 92 °F (2019)
Min Temperature 61 °F 54 °F 40 °F (2000)
Degree Days  
Heating Degree Days 0 4  
Month to date heating degree days 0 37  
Since 1 July heating degree days 0 39  
Cooling Degree Days 12 3  
Month to date cooling degree days 311 137  
Year to date cooling degree days 1448 1115  
Growing Degree Days 26 (Base 50)    
Moisture  
Dew Point 59 °F    
Average Humidity 57    
Maximum Humidity 78    
Minimum Humidity 36    
Precipitation  
Precipitation 0.00 in 0.11 in 1.88 in (2018)
Month to date precipitation T 3.11  
Year to date precipitation 39.46 36.66  
Snow  
Snow 0.00 in 0.00 in - ()
Month to date snowfall 0.0 0.0  
Since 1 July snowfall 0.0 0.0  
Since 1 September snowfall 0.0 0.0  
Snow Depth 0.00 in    
Sea Level Pressure  
Sea Level Pressure 29.97 in    
Wind  
Wind Speed 1 mph (South)    
Max Wind Speed 8 mph    
Max Gust Speed 16 mph    
Visibility 10 miles    
Events      
T = Trace of Precipitation, MM = Missing Value Source: NWS Daily Summary

Daily Weather History Graph

Daily Weather History Graph

Search for Another Location

Airport or City:

Astronomy

Sep. 27, 2019 Rise Set
Actual Time 7:25 AM EDT 7:22 PM EDT
Civil Twilight 6:59 AM EDT 7:48 PM EDT
Nautical Twilight 6:28 AM EDT 8:19 PM EDT
Astronomical Twilight 5:57 AM EDT 8:49 PM EDT
Moon 5:48 AM EDT (9/27) 7:10 PM EDT (9/27)
Length of Visible Light 12h 49m
Length of Day
11h 57m
Waning Crescent, 2% of the Moon is Illuminated
Sep 27
Waning Crescent
Sep 28
New
Oct 5
First Quarter
Oct 13
Full
Oct 21
Last Quarter

Hourly Weather History & Observations

Time (EDT) Temp. Heat Index Dew Point Humidity Pressure Visibility Wind Dir Wind Speed Gust Speed Precip Events Conditions
12:53 AM 66.9 °F - 50.0 °F 54% 29.99 in 10.0 mi Calm Calm - N/A   Clear
1:53 AM 66.9 °F - 51.1 °F 57% 29.98 in 10.0 mi Calm Calm - N/A   Clear
2:53 AM 66.0 °F - 51.1 °F 59% 29.98 in 10.0 mi Calm Calm - N/A   Clear
3:53 AM 64.9 °F - 51.1 °F 61% 29.97 in 10.0 mi Calm Calm - N/A   Clear
4:53 AM 64.0 °F - 51.1 °F 63% 29.98 in 10.0 mi Calm Calm - N/A   Clear
5:53 AM 62.1 °F - 54.0 °F 75% 29.99 in 10.0 mi Calm Calm - N/A   Clear
6:53 AM 61.0 °F - 53.1 °F 75% 29.99 in 10.0 mi Calm Calm - N/A   Clear
7:53 AM 62.1 °F - 52.0 °F 70% 30.00 in 10.0 mi SSE 4.6 mph - N/A   Clear
8:53 AM 64.9 °F - 55.9 °F 73% 30.01 in 10.0 mi SSE 3.5 mph - N/A   Clear
9:53 AM 66.9 °F - 57.0 °F 70% 30.02 in 10.0 mi Calm Calm - N/A   Clear
10:53 AM 73.9 °F - 60.1 °F 62% 30.03 in 10.0 mi Calm Calm - N/A   Clear
11:53 AM 77.0 °F - 63.0 °F 62% 30.01 in 10.0 mi Variable 3.5 mph - N/A   Clear
12:53 PM 82.9 °F 84.4 °F 64.0 °F 53% 29.99 in 10.0 mi Calm Calm - N/A   Clear
1:53 PM 88.0 °F 88.7 °F 63.0 °F 43% 29.96 in 10.0 mi Calm Calm - N/A   Clear
2:53 PM 90.0 °F 90.0 °F 61.0 °F 38% 29.93 in 10.0 mi North - - N/A   Clear
3:53 PM 90.0 °F 90.0 °F 61.0 °F 38% 29.92 in 10.0 mi Variable 4.6 mph - N/A   Partly Cloudy
4:53 PM 91.0 °F 90.9 °F 61.0 °F 36% 29.91 in 10.0 mi Variable 3.5 mph - N/A   Scattered Clouds
5:53 PM 87.1 °F 87.5 °F 62.1 °F 43% 29.93 in 10.0 mi North - - N/A   Partly Cloudy
6:53 PM 86.0 °F 86.8 °F 63.0 °F 46% 29.94 in 10.0 mi Calm Calm - N/A   Partly Cloudy
7:53 PM 82.0 °F 83.4 °F 64.0 °F 54% 29.94 in 10.0 mi Calm Calm - N/A   Clear
8:53 PM 80.1 °F 81.7 °F 64.0 °F 58% 29.96 in 10.0 mi SSW 3.5 mph - N/A   Clear
9:53 PM 80.1 °F 81.9 °F 64.9 °F 60% 29.96 in 10.0 mi Variable 4.6 mph - N/A   Clear
10:53 PM 77.0 °F - 66.0 °F 69% 29.95 in 10.0 mi Calm Calm - N/A   Clear
11:53 PM 77.0 °F - 64.9 °F 66% 29.94 in 10.0 mi Calm Calm - N/A   Clear